Overview Statistics Trail Chart Weather Telemetry Raw packets
 

This is the latest recevied weather packets stored in our database for station/object HB9FSE-WX. If no packets are shown the sender has not sent any weather packets the latest 10 day(s).

<< 2 3 4 5 6 7 8 >>
Time Temp. Humidity Pressure Rain* Wind** Luminosity Snow
1778093790 23.89° C 38% 1011.1 hPa - - - -
1778092890 23.89° C 38% 1011 hPa - - - -
1778091092 23.33° C 39% 1010.9 hPa - - - -
1778090192 23.89° C 39% 1010.6 hPa - - - -
1778089292 24.44° C 38% 1010.3 hPa - - - -
1778088392 24.44° C 38% 1010.1 hPa - - - -
1778087492 23.89° C 38% 1010 hPa - - - -
1778086592 23.89° C 38% 1009.9 hPa - - - -
1778085692 23.89° C 38% 1010 hPa - - - -
1778084792 23.89° C 37% 1009.9 hPa - - - -
1778083892 23.89° C 37% 1009.9 hPa - - - -
1778082992 23.89° C 38% 1009.9 hPa - - - -
1778082092 23.33° C 37% 1010.1 hPa - - - -
1778081192 22.78° C 38% 1009.9 hPa - - - -
1778080292 22.78° C 38% 1010.1 hPa - - - -
1778079392 23.33° C 39% 1010.2 hPa - - - -
1778078491 23.33° C 39% 1010.1 hPa - - - -
1778077591 23.33° C 39% 1010.1 hPa - - - -
1778076691 23.33° C 39% 1010 hPa - - - -
1778075791 22.78° C 39% 1010 hPa - - - -
1778074891 22.78° C 39% 1010.1 hPa - - - -
1778073991 22.78° C 39% 1010.1 hPa - - - -
1778073091 23.33° C 39% 1009.9 hPa - - - -
1778072191 23.33° C 39% 1009.7 hPa - - - -
1778071291 23.33° C 39% 1009.1 hPa - - - -

* Rain since midnight (hover to see other rain measurements)
** Current wind speed in m/s (hover to see current wind gust speed)